STARLINK-3087, 49175

Orbit data source: Space-Track

STARLINK-3087, 49175 is a payload satellite owned by SpaceX/Seattle (US) in LEO that was launched on Tue, 14 Sep 2021 UTC via an FALCON 9 launch vehicle from the Air Force Western Test Range (AFWTR). Payload-class satellites include a variety of spacecraft equipped with specific instruments for various scientific and technological missions. These include communications satellites like Starlink; space stations such as the ISS; scientific satellites like the Hubble; Earth observation satellites from companies like Planet Labs, Umbra, and HawkEye 360; GPS; miniature CubeSats for education and research; and military/defense satellites.

Loading next visibility...
Identifier
49175, 2021-082AX
Orbit
LEO
Country
Flag of USUS
Related business
Manufacturer
SpaceX/Seattle
Mission
Operational Commercial Communications
Bus & Motor
STARLINK, Unknown motor
Mass
297 kg wet, ~275 kg dry
Launch date (UTC)
2021-09-14 (5 years ago)
Launch vehicle
FALCON 9
Launch site
Air Force Western Test Range (AFWTR)
Object type
Payload
Rocket body
Debris
Shape & HBR
Box + 1 Pan, 10.1 m
Radar Cross Section
13.562 m², Large (>1 m²)

Expand to show TLE details & history
Last TLE update: 2 days ago

TLE from 2 days ago
0 STARLINK-3087
1 49175U 21082AX  26171.27170463  .00000116  00000-0  17841-4 0  9999
2 49175  69.9997  17.0592 0003017 269.1872  90.8941 14.97522786261806
Epoch: 2026-06-20T06:31Z
TLE epoch observation values (Epoch: 2026-06-20T06:31:15.280Z)
Latitude
0.00001°
Longitude
10.75682°
Altitude
577.01 km
Speed
7.572 km/s
True Right ascension
01h 08m 14s
True Declination
0° 00' 00"
Sunlit
Object was in daylight at epoch
Visualization orbit readout
Latitude
Unknown
Longitude
Unknown
Altitude
Unknown
Speed
Unknown
Apparent Right ascension
Unknown
Apparent Declination
Unknown
Sunlit
N/A
Visualization observer readout
Local Sidereal Time
00:49:56
Azimuth
Unknown
Elevation
Unknown
Doppler factor
Unknown
Orbital elements
Apogee altitude
574.599 km
Perigee altitude
570.405 km
Semi-major axis
6,950.639 km
Eccentricity
0.0003
Inclination
69.9997°
RAAN
17.0592°
Arg. of periapsis
269.1872°
True anomaly
90.92867°
Mean anomaly
90.8941°
Eccentric anomaly
90.91138°
Mean motion
3.74547 °/min
Orbital period
96.12 mins
BSTAR
0.000017841
Loading maneuver chart data...
Computing Atmospheric mass density...

Documentation

Showing up to 5 results
|